Date,TemperatureHighF,TemperatureAvgF,TemperatureLowF,DewpointHighF,DewpointAvgF,DewpointLowF,HumidityHigh,HumidityAvg,HumidityLow,PressureMaxIn,PressureMinIn,WindSpeedMaxMPH,WindSpeedAvgMPH,GustSpeedMaxMPH,PrecipitationSumIn
2013-1-1,39,32,22,29,21,9,78,65,54,29.89,29.70,8,2,13,0.02
2013-1-2,30,21,13,18,11,5,79,66,55,30.07,29.87,7,2,13,0.00
2013-1-3,26,16,5,13,4,-3,77,59,36,30.11,29.97,3,1,8,0.00
2013-1-4,39,28,14,27,21,10,90,74,60,29.96,29.80,8,2,14,0.03
2013-1-5,42,33,23,28,23,20,88,69,49,30.23,29.83,5,1,11,0.01
2013-1-6,44,33,23,32,27,20,95,82,61,30.19,29.90,7,1,11,0.00
2013-1-7,42,32,23,34,26,21,95,78,54,30.36,29.93,4,1,7,0.00
2013-1-8,47,36,21,33,29,20,95,77,56,30.34,30.23,9,2,12,0.00
2013-1-9,45,36,23,39,31,22,97,83,63,30.36,29.97,8,2,13,0.01
2013-1-10,47,41,33,32,28,26,73,59,48,30.49,30.03,9,3,13,0.00
2013-1-11,39,34,26,37,29,23,100,85,73,30.49,30.17,2,0,5,0.14
2013-1-12,43,40,37,43,40,37,100,100,98,30.20,30.09,1,0,7,0.06
2013-1-13,52,47,42,52,47,42,100,99,95,30.11,29.96,5,2,7,0.01
2013-1-14,62,52,41,54,45,32,100,80,48,30.21,29.84,6,3,8,0.00
2013-1-15,42,38,33,34,29,27,86,72,61,30.28,30.17,2,0,5,0.01
2013-1-16,34,33,30,33,31,27,99,94,74,30.21,29.78,1,0,4,0.11
2013-1-17,42,35,31,36,30,20,99,82,60,30.05,29.81,7,1,13,0.36
2013-1-18,30,24,19,19,8,3,63,51,37,30.42,30.00,7,2,13,0.00
2013-1-19,48,38,22,35,26,9,79,65,50,30.35,29.86,8,4,11,0.00
2013-1-20,53,42,29,35,29,14,79,61,40,29.89,29.51,12,5,23,0.00
2013-1-21,29,25,20,22,14,10,94,65,48,30.06,29.76,5,1,9,0.00
2013-1-22,24,20,13,22,10,1,94,65,41,30.05,29.72,7,2,12,0.00
2013-1-23,16,12,7,4,-2,-5,72,55,42,30.11,30.03,8,3,13,0.00
2013-1-24,21,12,3,0,-4,-6,69,51,36,30.20,30.05,8,3,24,0.00
2013-1-25,24,17,8,15,0,-5,89,50,32,30.28,30.03,4,1,8,0.00
2013-1-26,26,18,10,15,7,-1,100,66,39,30.21,29.97,5,2,12,0.00
2013-1-27,31,22,14,9,6,3,69,52,36,30.43,30.21,5,2,8,0.00
2013-1-28,31,24,18,27,16,6,97,72,42,30.42,29.98,3,0,6,0.00
2013-1-29,34,31,26,33,30,26,98,96,94,30.16,29.97,1,0,3,0.19
2013-1-30,61,50,33,59,49,33,100,98,91,30.12,29.44,11,4,15,0.15
2013-1-31,61,48,31,60,41,20,98,76,48,29.56,28.94,14,8,22,0.59
2013-2-1,33,29,22,20,14,8,72,54,42,30.05,29.56,9,4,19,0.00
2013-2-2,30,25,17,16,11,6,66,57,45,30.22,30.01,5,2,11,0.00
2013-2-3,29,25,20,24,22,16,93,87,66,30.02,29.70,4,0,5,0.01
2013-2-4,29,24,20,22,15,10,94,68,46,29.91,29.69,8,3,19,0.00
2013-2-5,27,24,21,24,18,12,94,76,65,29.99,29.89,2,0,5,0.00
2013-2-6,39,30,25,29,22,9,96,72,46,30.25,29.88,6,2,12,0.03
2013-2-7,32,26,18,15,10,8,68,51,38,30.49,30.26,3,1,5,0.00
2013-2-8,33,28,19,32,26,15,99,90,66,30.44,29.52,8,3,17,0.01
2013-2-9,24,20,15,23,19,13,96,95,93,30.16,29.49,7,5,20,0.00
2013-2-10,33,22,8,33,21,6,99,95,91,30.36,30.17,3,1,8,0.28
2013-2-11,46,34,17,46,33,15,100,98,95,30.32,29.57,4,1,6,0.27
2013-2-12,44,39,32,42,32,27,100,77,61,29.85,29.58,8,3,14,0.00
2013-2-13,43,35,27,29,27,23,87,73,55,29.83,29.65,4,1,7,0.00
2013-2-14,45,37,30,29,26,24,92,67,46,29.96,29.68,4,1,9,0.00
2013-2-15,52,38,28,38,33,25,99,82,58,29.97,29.87,6,2,9,0.00
2013-2-16,38,34,30,34,30,22,99,85,63,29.91,29.66,4,1,9,0.04
2013-2-17,30,22,18,24,14,4,94,74,45,29.66,29.36,9,5,19,0.00
2013-2-18,31,23,15,8,5,3,60,47,32,30.14,29.67,9,5,17,0.00
2013-2-19,48,36,21,45,27,6,99,72,48,30.15,29.55,6,2,7,0.30
2013-2-20,42,33,26,42,22,14,99,67,47,29.76,29.50,9,5,15,0.01
2013-2-21,34,28,24,19,17,15,73,63,50,30.15,29.74,8,4,21,0.00
2013-2-22,40,32,23,27,24,19,85,71,54,30.34,30.16,4,1,9,0.00
2013-2-23,38,34,29,34,30,25,99,88,76,30.29,29.85,4,1,7,0.16
2013-2-24,35,34,32,35,34,32,100,99,98,29.85,29.65,4,1,7,0.87
2013-2-25,40,35,29,37,33,29,99,92,77,30.20,29.85,3,0,5,0.22
2013-2-26,45,37,31,37,32,28,100,81,55,30.30,30.10,5,1,7,0.00
2013-2-27,43,40,36,42,39,33,100,98,85,30.11,29.53,8,3,18,1.49
2013-2-28,47,38,31,41,37,30,100,94,77,29.61,29.49,2,0,5,0.01
2013-3-1,44,38,32,37,32,29,99,80,65,29.64,29.49,4,1,7,0.00
2013-3-2,42,38,33,32,30,28,81,73,63,29.64,29.58,2,1,7,0.00
2013-3-3,43,36,32,33,30,27,95,79,66,29.61,29.52,3,1,6,0.00
2013-3-4,40,35,29,29,26,23,84,72,59,29.71,29.56,6,3,14,0.00
2013-3-5,46,37,31,36,30,25,94,75,59,30.02,29.71,4,1,9,0.00
2013-3-6,40,37,35,37,35,32,98,91,76,30.04,29.99,10,5,18,0.14
2013-3-7,36,32,31,33,31,30,99,96,83,29.99,29.94,6,3,13,0.26
2013-3-8,36,32,30,36,31,28,100,97,75,30.10,29.89,5,2,6,0.01
2013-3-9,47,36,27,34,29,24,97,74,55,30.31,30.10,4,1,13,0.49
2013-3-10,45,36,25,35,32,24,100,86,67,30.37,30.27,4,1,6,0.01
2013-3-11,52,42,35,43,38,33,98,86,66,30.29,30.11,6,2,9,0.00
2013-3-12,55,50,43,54,50,42,100,97,90,30.12,29.69,10,5,14,0.47
2013-3-13,52,44,32,52,34,25,100,71,43,29.75,29.66,6,2,12,0.00
2013-3-14,34,31,23,27,19,10,87,62,47,29.81,29.68,8,3,14,0.00
2013-3-15,41,31,20,31,18,11,88,60,34,29.85,29.61,8,3,12,0.00
2013-3-16,40,35,29,30,20,15,89,57,37,29.83,29.65,4,1,6,0.00
2013-3-17,38,32,23,21,15,9,83,53,32,30.27,29.83,6,2,15,0.00
2013-3-18,38,29,18,28,13,4,92,53,32,30.42,30.19,4,1,7,0.00
2013-3-19,37,33,29,37,32,27,99,98,90,30.19,29.56,6,2,8,0.62
2013-3-20,38,32,26,29,23,21,97,72,52,29.78,29.67,9,3,16,0.28
2013-3-21,37,31,25,30,25,21,94,81,60,29.79,29.57,2,0,4,0.09
2013-3-22,40,34,28,28,22,20,92,63,46,29.72,29.57,7,2,11,0.01
2013-3-23,43,36,30,26,23,22,80,61,44,29.77,29.62,9,4,21,0.00
2013-3-24,49,39,32,29,26,22,76,60,45,29.79,29.69,4,2,11,0.00
2013-3-25,44,37,31,36,31,27,88,79,64,29.73,29.47,8,2,20,0.00
2013-3-26,49,41,35,33,29,24,89,64,43,29.75,29.49,4,2,12,0.01
2013-3-27,54,42,28,34,28,24,86,59,38,29.83,29.71,5,1,14,0.00
2013-3-28,50,43,37,37,35,34,94,76,54,29.98,29.83,3,1,10,0.02
2013-3-29,58,47,34,39,34,31,91,64,41,30.01,29.93,5,1,9,0.00
2013-3-30,57,47,36,35,29,23,80,52,28,30.06,29.96,5,1,9,0.00
2013-3-31,58,45,29,44,32,25,94,63,33,30.08,29.70,9,3,15,0.03
2013-4-1,62,47,35,48,40,17,99,78,45,29.76,29.47,8,4,16,0.22
2013-4-2,40,34,28,22,18,14,69,51,38,29.93,29.76,10,4,18,0.00
2013-4-3,44,36,31,20,18,16,60,48,33,30.13,29.91,9,5,15,0.00
2013-4-4,55,41,30,30,22,18,71,48,26,30.27,30.03,6,3,8,0.00
2013-4-5,61,47,38,35,31,26,79,57,28,30.03,29.59,5,3,11,0.00
2013-4-6,46,39,31,29,17,11,66,44,24,30.29,29.85,7,2,12,0.00
2013-4-7,54,41,26,42,31,20,87,68,41,30.30,29.97,10,4,22,0.00
2013-4-8,66,54,43,46,44,40,98,72,40,30.05,29.92,5,1,11,0.00
2013-4-9,72,58,48,56,47,42,98,70,44,30.05,29.81,7,2,15,0.00
2013-4-10,67,54,45,53,48,44,99,83,60,29.96,29.81,7,1,10,0.17
2013-4-11,53,48,45,48,44,32,99,88,54,30.03,29.77,4,1,8,0.07
2013-4-12,41,39,38,39,37,33,99,93,75,30.09,29.74,7,3,15,0.59
2013-4-13,54,45,36,42,38,35,99,80,55,29.89,29.70,5,1,8,0.08
2013-4-14,52,45,37,41,35,30,95,70,47,30.18,29.89,6,2,13,0.00
2013-4-15,59,45,31,39,35,28,94,69,45,30.36,30.18,6,2,8,0.00
2013-4-16,62,50,35,53,44,34,99,81,60,30.37,30.05,11,4,15,0.00
2013-4-17,67,59,46,54,43,34,92,60,33,30.29,30.03,6,2,11,0.00
2013-4-18,61,50,37,48,39,33,99,70,42,30.38,30.11,9,3,18,0.00
2013-4-19,72,62,52,64,60,48,100,91,73,30.11,29.62,9,5,16,0.00
2013-4-20,65,54,44,63,44,28,100,72,45,30.19,29.57,8,3,13,0.60
2013-4-21,54,44,34,34,27,23,85,54,34,30.64,30.19,5,1,9,0.00
2013-4-22,51,42,32,38,33,29,96,72,44,30.70,30.54,7,2,14,0.00
2013-4-23,42,41,39,42,40,33,99,94,79,30.54,30.06,4,2,10,0.08
2013-4-24,74,55,41,54,47,41,100,78,34,30.06,29.77,6,3,15,0.02
2013-4-25,64,55,42,53,40,28,97,61,31,30.22,29.80,6,2,8,0.03
2013-4-26,62,50,36,45,39,32,93,69,43,30.38,30.22,5,1,7,0.00
2013-4-27,65,50,35,45,39,34,99,72,38,30.38,30.25,6,1,9,0.00
2013-4-28,68,53,36,43,38,33,97,62,37,30.30,30.19,8,2,13,0.00
2013-4-29,65,55,45,49,41,32,96,62,35,30.24,30.16,8,2,13,0.00
2013-4-30,70,56,40,42,34,27,87,48,24,30.32,30.21,4,1,9,0.00
2013-5-1,69,55,35,45,39,33,95,59,34,30.42,30.32,5,1,9,0.00
2013-5-2,78,56,41,49,44,40,97,69,33,30.44,30.29,6,1,13,0.00
2013-5-3,59,50,42,48,43,39,93,78,63,30.47,30.34,7,2,11,0.00
2013-5-4,61,49,36,49,40,32,99,75,40,30.34,30.26,6,1,11,0.00
2013-5-5,63,49,34,47,41,33,99,77,51,30.29,30.20,4,1,7,0.00
2013-5-6,74,54,35,54,46,34,99,78,46,30.25,30.10,5,1,7,0.00
2013-5-7,77,61,42,61,54,42,99,79,58,30.14,30.05,6,2,11,0.00
2013-5-8,72,63,55,66,60,54,100,92,71,30.14,30.00,8,2,12,0.31
2013-5-9,68,61,58,63,60,58,100,97,77,30.00,29.83,4,0,6,0.99
2013-5-10,80,67,53,63,58,53,100,76,47,29.91,29.84,4,0,7,0.00
2013-5-11,71,63,58,64,60,56,99,91,76,29.88,29.66,6,2,12,0.06
2013-5-12,71,61,50,61,54,35,100,78,51,29.78,29.53,7,1,9,0.03
2013-5-13,59,49,37,38,35,32,91,60,39,29.99,29.78,5,2,11,0.00
2013-5-14,59,50,38,39,35,33,90,59,39,30.01,29.94,5,1,13,0.00
2013-5-15,65,51,36,54,43,34,96,77,41,30.02,29.65,6,2,14,0.03
2013-5-16,81,67,51,54,48,43,99,57,28,29.76,29.60,8,2,11,0.00
2013-5-17,69,60,49,50,46,42,86,61,41,30.18,29.75,4,1,14,0.00
2013-5-18,73,60,44,52,47,43,98,68,37,30.27,30.18,4,0,5,0.00
2013-5-19,70,58,47,56,52,46,99,81,56,30.30,30.18,4,1,8,0.09
2013-5-20,82,69,56,69,63,55,100,85,61,30.18,29.87,3,1,6,0.02
2013-5-21,88,66,52,73,62,52,100,89,58,29.94,29.79,5,1,8,0.16
2013-5-22,72,60,51,68,58,51,100,94,83,30.00,29.83,4,1,6,0.06
2013-5-23,74,66,56,70,64,56,100,95,82,29.88,29.77,5,2,7,0.22
2013-5-24,70,63,49,68,62,49,100,97,88,29.78,29.61,4,1,7,0.87
2013-5-25,52,47,41,51,47,40,100,98,94,29.77,29.67,5,2,12,0.36
2013-5-26,59,48,40,44,41,38,97,78,52,30.08,29.70,7,3,16,0.01
2013-5-27,72,57,39,48,43,38,99,65,33,30.13,30.04,5,1,13,0.00
2013-5-28,78,60,41,57,49,41,99,70,39,30.20,30.11,4,1,7,0.00
2013-5-29,75,64,58,69,63,57,100,94,81,30.15,29.95,3,1,8,1.14
2013-5-30,88,75,62,73,69,62,100,83,58,30.05,29.97,3,1,6,0.01
2013-5-31,94,80,65,76,70,65,100,74,45,30.05,29.90,3,0,6,0.00
2013-6-1,90,79,66,72,69,64,93,73,52,29.94,29.83,3,1,8,0.00
2013-6-2,87,76,68,73,69,66,95,78,55,29.85,29.70,7,2,15,0.00
2013-6-3,77,69,63,70,66,54,100,92,74,29.81,29.72,3,0,5,0.66
2013-6-4,72,62,48,54,48,43,88,62,46,30.06,29.79,4,1,9,0.00
2013-6-5,74,62,47,56,50,46,99,68,43,30.15,30.05,4,0,8,0.00
2013-6-6,72,63,52,58,54,50,95,73,51,30.15,30.07,5,1,8,0.00
2013-6-7,60,56,54,60,56,54,100,99,92,30.06,29.76,3,1,5,3.19
2013-6-8,78,63,54,68,60,54,100,89,68,29.97,29.57,4,1,7,0.73
2013-6-9,80,68,54,62,59,54,100,76,49,30.12,29.97,4,1,5,0.00
2013-6-10,70,62,54,65,60,54,100,93,73,30.16,29.97,3,0,5,0.84
2013-6-11,66,60,57,63,59,57,100,98,88,29.97,29.52,2,0,5,1.34
2013-6-12,71,63,57,59,57,54,100,81,62,29.77,29.52,6,2,17,0.01
2013-6-13,64,56,51,62,55,50,100,96,86,29.79,29.61,2,0,7,0.98
2013-6-14,72,60,52,61,56,52,100,87,64,29.73,29.58,3,1,8,1.28
2013-6-15,79,68,56,57,53,48,93,62,36,29.91,29.74,3,1,7,0.00
2013-6-16,75,66,52,66,58,50,93,77,57,29.91,29.68,2,0,5,0.00
2013-6-17,85,70,58,68,63,58,100,81,49,29.87,29.73,6,1,10,0.82
2013-6-18,78,64,59,70,62,59,100,94,70,29.90,29.82,5,0,6,0.88
2013-6-19,76,65,56,60,56,52,100,77,45,30.11,29.85,3,1,6,0.01
2013-6-20,79,67,51,60,56,51,100,71,44,30.22,30.11,2,0,4,0.00
2013-6-21,83,70,57,69,62,55,92,76,56,30.22,30.15,2,0,3,0.00
2013-6-22,84,72,62,67,62,57,86,72,54,30.18,30.08,4,1,6,0.00
2013-6-23,88,76,64,76,68,59,88,76,60,30.13,29.97,3,1,6,0.00
2013-6-24,92,80,69,77,72,67,99,79,57,29.99,29.83,5,1,6,0.04
2013-6-25,91,78,67,75,71,67,99,82,55,29.89,29.69,5,1,7,0.05
2013-6-26,87,76,68,75,71,68,100,86,64,29.81,29.69,3,0,5,0.00
2013-6-27,70,66,64,68,66,63,100,98,91,29.82,29.70,2,0,6,0.02
2013-6-28,81,71,63,75,69,63,100,95,77,29.71,29.45,6,2,9,0.45
2013-6-29,82,74,70,74,71,69,100,89,71,29.68,29.47,5,2,9,0.00
2013-6-30,84,75,70,76,72,69,98,90,78,29.90,29.68,5,1,10,0.01
2013-7-1,83,75,71,77,73,71,100,96,81,30.04,29.89,4,1,8,0.07
2013-7-2,83,76,69,77,73,67,99,92,78,30.15,30.03,3,0,6,0.00
2013-7-3,87,76,64,78,72,64,100,88,69,30.17,30.10,3,1,5,0.02
2013-7-4,91,82,72,79,76,72,100,84,64,30.17,30.06,3,1,7,0.00
2013-7-5,93,84,74,79,76,72,96,79,61,30.12,30.00,3,1,4,0.00
2013-7-6,90,82,73,78,75,72,97,82,60,30.04,29.93,3,0,4,0.00
2013-7-7,94,79,71,80,74,70,100,86,63,29.98,29.86,2,0,5,0.11
2013-7-8,90,77,67,79,74,67,100,90,61,30.01,29.86,2,0,5,0.86
2013-7-9,76,69,66,73,68,66,100,97,88,30.06,29.99,2,0,3,0.01
2013-7-10,84,74,67,78,72,67,100,95,79,30.02,29.75,5,1,9,0.05
2013-7-11,80,75,71,77,74,70,100,96,85,29.88,29.74,2,0,4,0.23
2013-7-12,76,70,66,70,65,61,98,84,72,30.15,29.87,4,1,11,0.00
2013-7-13,76,70,65,74,69,63,100,97,92,30.26,30.15,1,0,5,0.11
2013-7-14,91,80,72,78,75,72,100,85,58,30.26,30.15,2,0,2,0.00
2013-7-15,92,81,72,79,75,72,100,84,61,30.16,30.05,2,0,4,0.00
2013-7-16,94,82,68,76,73,67,100,75,49,30.12,30.05,3,0,8,0.00
2013-7-17,95,82,70,78,74,70,100,80,50,30.13,29.96,3,0,5,0.00
2013-7-18,95,84,74,79,76,72,96,77,54,29.97,29.88,3,0,4,0.00
2013-7-19,95,85,75,81,78,75,99,81,57,29.90,29.68,4,1,7,0.00
2013-7-20,92,83,74,80,77,71,96,84,61,29.76,29.60,4,0,6,0.00
2013-7-21,85,77,70,73,69,66,93,78,55,29.94,29.77,4,0,6,0.00
2013-7-22,84,74,66,73,70,66,100,87,61,29.96,29.83,3,1,7,0.00
2013-7-23,85,74,70,79,73,69,100,97,79,29.83,29.49,4,0,4,1.49
2013-7-24,84,76,69,76,70,60,100,84,62,29.89,29.54,3,0,7,0.01
2013-7-25,68,61,59,60,57,52,100,88,72,30.05,29.90,2,0,4,0.42
2013-7-26,72,64,59,69,63,59,100,97,90,30.01,29.90,4,1,9,0.66
2013-7-27,83,71,59,72,66,59,100,86,60,30.03,29.95,2,0,4,0.01
2013-7-28,85,73,65,74,69,64,100,90,63,29.97,29.91,3,0,6,0.00
2013-7-29,82,73,66,75,70,66,100,91,76,30.00,29.92,5,1,6,0.01
2013-7-30,83,72,60,68,63,59,97,75,50,30.06,29.99,3,0,6,0.00
2013-7-31,82,72,59,68,63,58,98,77,53,30.10,29.99,2,0,5,0.00
2013-8-1,79,69,61,69,64,61,100,86,64,30.01,29.84,6,1,8,0.00
2013-8-2,83,72,64,71,66,63,100,83,54,29.84,29.76,3,0,6,0.30
2013-8-3,79,70,64,68,65,62,98,84,65,29.83,29.75,2,0,4,0.00
2013-8-4,80,68,57,64,60,56,99,79,51,29.85,29.73,3,0,6,0.01
2013-8-5,76,64,54,57,53,49,97,71,40,30.01,29.85,4,1,10,0.00
2013-8-6,79,65,49,59,55,49,99,74,46,30.11,30.01,2,0,4,0.00
2013-8-7,78,66,53,65,58,53,100,77,42,30.15,30.08,4,1,10,0.00
2013-8-8,79,71,64,73,68,60,99,91,82,30.09,29.97,2,0,6,0.29
2013-8-9,76,73,71,76,72,71,100,98,95,29.99,29.72,6,1,16,1.29
2013-8-10,82,74,60,74,66,57,100,78,50,29.97,29.75,4,1,9,0.01
2013-8-11,79,66,53,63,58,53,99,78,51,30.05,29.97,2,0,5,0.00
2013-8-12,83,70,59,66,63,58,99,79,50,30.00,29.88,2,0,4,0.00
2013-8-13,73,68,63,70,66,62,99,94,81,29.89,29.65,3,0,4,0.00
2013-8-14,73,66,60,65,58,52,100,75,58,29.93,29.63,5,1,14,0.00
2013-8-15,76,64,52,59,56,51,98,75,49,30.08,29.93,3,0,5,0.00
2013-8-16,80,66,53,62,58,53,99,77,48,30.16,30.08,2,0,6,0.00
2013-8-17,80,68,54,65,60,54,99,78,55,30.24,30.16,3,0,4,0.00
2013-8-18,80,68,58,68,62,57,99,84,51,30.24,30.05,3,0,8,0.00
2013-8-19,82,70,58,67,63,58,100,80,51,30.05,29.92,1,0,2,0.00
2013-8-20,86,74,61,69,65,60,99,77,48,30.05,29.94,1,0,5,0.00
2013-8-21,88,75,62,71,67,61,99,79,52,30.10,29.99,1,0,4,0.00
2013-8-22,84,74,64,75,70,64,100,88,69,30.00,29.79,2,0,5,0.00
2013-8-23,80,72,62,70,64,56,99,77,51,30.07,29.78,4,1,10,0.00
2013-8-24,76,65,54,57,54,51,95,69,44,30.30,30.08,3,0,5,0.00
2013-8-25,82,67,51,62,57,51,100,73,44,30.33,30.16,2,0,6,0.00
2013-8-26,78,70,64,70,65,59,93,82,70,30.16,29.84,2,0,5,0.00
2013-8-27,81,72,65,74,69,65,100,92,74,29.85,29.79,2,0,4,0.18
2013-8-28,85,72,61,72,67,61,100,85,57,29.93,29.81,3,0,6,0.00
2013-8-29,67,64,61,66,63,59,100,97,93,30.03,29.91,2,0,6,0.00
2013-8-30,81,69,61,71,66,60,97,88,71,29.99,29.80,1,0,4,0.00
2013-8-31,80,74,68,75,72,68,100,94,86,29.80,29.75,1,0,4,0.00
2013-9-1,78,73,69,77,72,69,100,99,94,29.84,29.76,2,0,5,0.56
2013-9-2,79,74,69,76,73,69,100,97,84,29.83,29.67,5,1,7,0.31
2013-9-3,80,72,63,73,70,61,100,92,76,29.78,29.65,1,0,3,0.01
2013-9-4,80,68,56,64,61,56,100,81,54,29.89,29.77,3,0,12,0.01
2013-9-5,71,62,50,65,58,49,99,86,61,30.10,29.83,2,0,7,0.07
2013-9-6,69,57,43,51,47,42,99,73,43,30.21,30.07,2,0,4,0.00
2013-9-7,79,63,47,61,54,46,97,75,45,30.07,29.83,2,0,2,0.00
2013-9-8,76,65,51,65,56,44,98,74,47,30.05,29.72,6,1,11,0.00
2013-9-9,69,56,41,53,48,40,98,76,50,30.20,30.06,2,0,3,0.00
2013-9-10,76,66,54,71,64,52,99,92,86,30.13,30.00,3,0,8,0.02
2013-9-11,95,80,68,81,74,68,100,84,53,30.03,29.90,2,0,5,0.00
2013-9-12,87,76,69,78,72,68,100,89,68,29.93,29.64,5,1,8,0.37
2013-9-13,79,69,60,71,66,57,100,90,68,29.72,29.53,3,0,8,0.15
2013-9-14,68,61,52,58,55,51,97,83,67,30.02,29.72,2,0,6,0.00
2013-9-15,71,58,45,57,52,45,100,82,54,30.13,30.02,1,0,5,0.00
2013-9-16,68,58,49,59,53,41,98,85,67,30.21,29.99,3,0,9,0.03
2013-9-17,62,51,40,48,42,37,97,73,47,30.38,30.21,3,1,9,0.00
2013-9-18,74,56,40,54,47,40,99,77,42,30.30,30.12,2,0,7,0.00
2013-9-19,80,62,46,60,54,45,99,78,46,30.12,30.00,1,0,2,0.00
2013-9-20,81,64,48,62,56,47,100,80,45,30.05,29.96,3,0,4,0.01
2013-9-21,75,64,53,68,62,53,100,92,69,30.00,29.69,6,2,16,0.01
2013-9-22,72,64,52,69,59,48,100,85,61,29.79,29.57,5,1,9,0.62
2013-9-23,64,54,43,49,46,42,96,75,55,29.97,29.79,3,1,6,0.00
2013-9-24,67,54,40,49,45,39,97,73,48,29.97,29.78,4,1,7,0.00
2013-9-25,69,56,43,56,50,43,98,81,61,29.94,29.84,3,0,6,0.00
2013-9-26,66,58,52,54,52,49,96,81,61,30.08,29.94,2,0,6,0.00
2013-9-27,65,58,48,57,54,48,98,86,72,30.23,30.08,2,0,6,0.00
2013-9-28,74,57,43,60,52,43,100,85,59,30.30,30.22,3,0,6,0.00
2013-9-29,69,53,44,57,48,43,100,86,51,30.23,30.09,2,0,3,0.00
2013-9-30,68,56,47,56,51,47,100,87,55,30.09,29.93,2,0,5,0.01
2013-10-1,78,60,42,60,53,42,100,81,46,29.93,29.81,3,0,8,0.01
2013-10-2,79,65,51,65,59,51,100,84,61,29.92,29.80,4,1,10,0.00
2013-10-3,78,63,50,60,54,49,99,77,42,30.05,29.92,1,0,2,0.01
2013-10-4,63,56,49,60,55,48,100,95,78,30.06,30.00,1,0,4,0.62
2013-10-5,69,62,56,63,60,56,100,93,79,30.09,30.02,1,0,5,0.02
2013-10-6,60,57,56,60,57,56,100,100,97,30.17,30.07,1,0,4,0.59
2013-10-7,75,66,56,72,64,56,100,95,86,30.09,29.79,7,2,17,0.07
2013-10-8,66,57,44,56,49,44,97,76,52,30.33,29.87,3,1,8,0.00
2013-10-9,62,51,42,50,45,40,98,83,58,30.43,30.33,3,1,6,0.00
2013-10-10,63,52,42,57,50,41,100,92,78,30.33,30.14,2,0,4,0.00
2013-10-11,70,57,50,60,53,49,100,87,66,30.14,30.05,2,0,6,0.00
2013-10-12,61,55,50,58,53,49,99,95,87,30.35,30.10,4,1,13,0.01
2013-10-13,60,52,39,53,48,39,99,88,71,30.40,30.33,3,0,7,0.00
2013-10-14,65,49,33,50,42,32,100,82,45,30.38,30.23,2,0,4,0.00
2013-10-15,69,57,47,58,52,46,99,84,63,30.24,30.14,2,0,3,0.00
2013-10-16,62,55,47,58,53,47,100,95,84,30.14,29.88,1,0,1,0.00
2013-10-17,70,61,51,63,58,51,100,92,75,29.89,29.69,3,0,7,0.03
2013-10-18,67,60,44,63,53,43,100,80,54,29.88,29.58,7,2,11,0.02
2013-10-19,66,53,39,50,46,38,97,78,48,29.94,29.72,4,0,8,0.00
2013-10-20,62,53,40,51,43,37,99,72,42,30.00,29.66,6,2,7,0.00
2013-10-21,67,52,37,47,42,36,95,73,46,30.09,29.97,4,1,7,0.00
2013-10-22,68,54,40,56,48,40,100,83,59,29.97,29.67,4,0,8,0.01
2013-10-23,51,44,35,42,38,34,97,79,56,29.77,29.56,1,0,2,0.00
2013-10-24,52,44,34,38,33,29,95,68,42,29.87,29.62,7,1,12,0.00
2013-10-25,50,40,30,38,31,28,95,73,51,30.14,29.87,4,1,7,0.00
2013-10-26,54,43,29,40,33,28,96,72,42,30.14,29.85,6,1,14,0.00
2013-10-27,56,47,36,42,37,32,94,70,48,30.04,29.79,7,2,13,0.02
2013-10-28,59,44,31,40,34,29,95,70,48,30.32,30.04,7,1,9,0.00
2013-10-29,50,38,29,33,28,26,91,68,42,30.42,30.32,3,0,5,0.00
2013-10-30,55,41,29,45,37,26,97,86,67,30.34,30.17,3,0,3,0.00
2013-10-31,62,49,32,61,47,31,100,96,88,30.21,29.78,4,1,10,0.03
2013-11-1,70,64,59,65,60,56,99,87,75,29.76,29.43,8,4,13,0.11
2013-11-2,67,56,46,56,48,45,98,77,47,29.69,29.56,3,0,5,0.00
2013-11-3,52,42,33,48,33,20,91,70,43,30.38,29.68,2,1,7,0.00
2013-11-4,44,34,26,24,22,19,89,61,40,30.68,30.38,3,0,5,0.00
2013-11-5,51,38,24,35,30,22,94,75,50,30.69,30.49,3,0,5,0.00
2013-11-6,60,50,37,52,44,34,94,81,57,30.49,30.02,4,1,8,0.00
2013-11-7,66,54,41,60,52,35,98,90,77,30.01,29.64,8,2,12,0.24
2013-11-8,48,40,30,37,30,25,89,69,52,30.07,29.78,8,2,15,0.00
2013-11-9,45,37,28,33,28,24,87,69,49,30.19,30.00,5,1,9,0.00
2013-11-10,56,46,42,45,39,34,97,75,56,30.00,29.71,8,2,11,0.04
2013-11-11,51,46,40,37,32,30,72,60,45,30.08,29.84,6,2,13,0.00
2013-11-12,50,37,27,40,28,18,95,72,60,30.16,29.86,7,2,19,0.10
2013-11-13,37,30,24,21,18,15,77,62,46,30.26,30.15,4,1,9,0.00
2013-11-14,51,40,29,29,24,19,72,54,41,30.15,30.02,5,1,9,0.00
2013-11-15,61,47,34,37,28,20,81,49,27,30.17,30.08,4,1,7,0.00
2013-11-16,61,46,34,42,33,30,88,64,33,30.28,30.16,2,0,4,0.00
2013-11-17,60,47,32,59,45,29,100,92,77,30.28,29.81,3,0,6,0.05
2013-11-18,66,59,49,63,50,35,100,75,48,29.80,29.50,8,3,12,0.29
2013-11-19,49,40,31,36,26,21,65,57,47,30.25,29.62,7,3,11,0.00
2013-11-20,43,32,23,20,18,16,83,58,36,30.59,30.25,4,1,10,0.00
2013-11-21,48,34,20,34,24,17,92,71,44,30.61,30.36,4,0,8,0.00
2013-11-22,49,45,40,49,43,34,100,95,78,30.35,29.79,0,0,0,0.12
2013-11-23,48,41,30,48,30,18,99,65,42,29.88,29.76,6,3,16,0.00
2013-11-24,30,24,21,19,9,1,74,52,31,30.17,29.77,8,5,18,0.00
2013-11-25,34,26,17,21,8,1,66,48,29,30.35,30.17,5,2,9,0.00
2013-11-26,41,37,31,38,27,21,98,69,48,30.29,30.00,4,1,10,0.14
2013-11-27,61,52,38,61,51,34,100,98,87,29.98,29.18,14,4,23,1.99
2013-11-28,38,31,24,34,20,12,88,63,43,30.41,29.45,9,4,18,0.00
2013-11-29,36,28,22,20,16,8,79,60,47,30.71,30.41,3,0,7,0.00
2013-11-30,34,26,15,24,17,10,84,69,54,30.76,30.41,3,0,5,0.00
2013-12-1,38,35,29,38,33,24,100,95,80,30.40,29.98,1,0,1,0.15
2013-12-2,40,38,36,40,38,36,100,100,98,29.98,29.89,1,0,3,0.01
2013-12-3,50,40,32,40,36,31,100,89,64,29.92,29.81,3,0,5,0.00
2013-12-4,47,35,28,34,31,27,98,86,59,30.16,29.92,2,0,5,0.00
2013-12-5,56,43,31,56,42,30,100,95,86,30.17,29.87,5,0,7,0.00
2013-12-6,57,50,36,57,48,35,100,92,79,30.09,29.82,4,1,8,0.38
2013-12-7,40,34,26,35,30,24,99,87,69,30.42,30.03,5,1,7,0.19
2013-12-8,32,29,22,23,20,17,90,71,59,30.56,30.42,1,0,2,0.00
2013-12-9,38,33,26,38,32,22,100,96,72,30.46,29.86,3,0,4,0.32
2013-12-10,33,31,24,33,30,21,100,98,88,29.97,29.76,2,0,4,0.02
2013-12-11,30,25,20,24,21,18,93,85,77,30.20,29.98,5,1,8,0.01
2013-12-12,26,21,12,20,12,7,86,70,48,30.25,30.05,4,1,13,0.00
2013-12-13,30,23,14,21,14,9,79,70,58,30.34,29.98,7,2,12,0.00
2013-12-14,28,16,12,27,9,1,97,74,55,30.56,30.10,3,0,6,0.00
2013-12-15,36,29,24,36,28,22,100,95,86,30.09,29.38,6,2,12,0.00
2013-12-16,30,24,14,23,16,10,94,70,51,30.17,29.72,6,2,16,0.00
2013-12-17,20,13,3,18,10,0,94,89,79,30.25,29.92,2,0,8,0.00
2013-12-18,34,26,17,25,21,15,95,83,64,30.06,29.84,5,1,10,0.01
2013-12-19,44,34,23,30,26,20,89,74,55,30.09,29.93,8,2,13,0.09
2013-12-20,55,42,32,40,32,-100,90,73,53,30.09,29.89,4,-20,6,0.50
2013-12-21,60,51,43,52,46,37,96,85,73,29.93,29.83,4,2,7,0.08
2013-12-22,66,52,37,63,50,37,99,94,75,29.97,29.73,8,2,13,0.01
2013-12-23,39,36,34,39,36,34,100,100,99,30.05,29.93,2,0,5,0.80
2013-12-24,39,33,27,39,27,16,100,78,58,30.17,30.01,3,1,7,0.01
2013-12-25,27,20,15,16,9,6,80,62,48,30.51,30.17,5,1,11,0.00
2013-12-26,33,26,16,31,22,10,96,87,79,30.47,30.05,2,0,2,0.00
2013-12-27,35,28,21,25,22,19,95,79,61,30.26,30.17,7,1,12,0.03
2013-12-28,47,35,26,32,27,22,90,75,52,30.19,29.97,8,2,10,0.00
2013-12-29,44,33,29,41,20,-100,100,81,73,30.00,29.36,5,-110,6,1.22
2013-12-30,40,32,20,37,26,13,99,78,49,30.12,29.49,6,2,11,0.01
2013-12-31,27,20,15,16,11,3,82,67,53,30.16,29.99,4,1,6,0.00
2014-1-1,28,22,16,16,12,8,82,64,50,30.35,30.16,6,1,11,0.00
2014-1-2,22,14,3,19,12,0,92,89,75,30.32,29.78,3,1,11,0.00